Voltar ao catálogo

SL-16 DEB

AtivoLEO
NORAD 19127·DEBRIS·🇷🇺 Russia

Lançado May 15, 1988 de Baikonur Cosmodrome

Loading…

Próximas Passagens (próximas 24 horas)

TLE

AtualizadoSource: Space-Track

Época: Sep 14, 2026, 05:19 UTC

1 19127U 88039E   26257.22184403  .00000042  00000-0  78074-4 0  9990
2 19127  70.9878  63.9825 0206248 103.7989  67.9363 13.72810700918936

Acompanhe SL-16 DEB em tempo real com AllMySat

Download on the App Store